Location: ??????????
(41.2581°N, 22.8006°E)
Time: 12:13:32
(UTC+00:00)

GEOS 3 Rocket - Pass Details

Date: 16 March 2026
Orbit: 767 x 846 km, 115.0° (Epoch: 14 April)

Event Time Altitude Azimuth Distance (km) Brightness Sun altitude
Rises 02:42:24 0° 35° (NE) 3,412 7.7 -22.5°
Reaches altitude 10° 02:44:44 10° 36° (NE) 2,473 6.9 -22.1°
Maximum altitude 02:50:09 90° 129° (SE) 847 3.6 -21.1°
Enters shadow 02:52:39 33° 217° (SW) 1,366 4.4 -20.6°
